Simultaneous Nadir Overpasses (SNOs) Predictions

Prediction of SNOs between METOP-A and TERRA Satellite Orbit:

Table of predicted SNOs for the next 14.0 days since TLE Epoch: 4/27/2015
Index Date (METOP-A) Time (METOP-A) Lat,Lon (METOP-A) SZA (METOP-A ) Date (TERRA) Time (TERRA) Lat,Lon (TERRA) SZA (TERRA ) Distance(km) Time Diff (sec)
1 04/27/2015 05:09:32 81.34, 150.79 70.64 04/27/2015 05:08:19 81.33, 150.91 70.61 2.05 73
2 04/29/2015 23:53:11 -81.34, 49.66 110.25 04/29/2015 23:53:13 -81.33, 49.59 110.27 1.51 2
3 04/30/2015 00:43:51 81.34,-142.80 69.77 04/30/2015 00:42:39 81.34,-142.65 69.75 2.65 72
4 05/02/2015 19:27:29 -81.34, 116.39 111.05 05/02/2015 19:27:32 -81.34, 116.26 111.06 2.06 3
5 05/02/2015 20:18:09 81.34, -76.09 68.97 05/02/2015 20:16:58 81.35, -76.00 68.94 1.54 71
6 05/05/2015 15:01:47 -81.34,-177.37 111.88 05/05/2015 15:01:50 -81.35,-177.24 111.86 2.25 3
7 05/05/2015 15:52:26 81.35, -9.46 68.19 05/05/2015 15:51:16 81.35, -9.53 68.15 1.36 70
8 05/08/2015 10:36:05 -81.34,-110.81 112.63 05/08/2015 10:36:09 -81.34,-110.93 112.65 1.90 4




NCC Satellite Simultaneous Nadir Overpasses (SNOs) Prediction Service
